FW3731 Weather Reports


Display with metric or nautical units.
time (UTC)temp
F
wind
direction
speed
MPH
gust
MPH
rain 1hr
in
rain 24hr
in
rain mn
in
humidity
%
barometer
mb
20260906150050 87 11 0.0 4.0 0.00 0.00 0.00 73 1014.0
20260906144545 87 16 0.0 0.0 0.00 0.00 0.00 73 1014.1
20260906143040 87 56 0.0 0.0 0.00 0.00 0.00 73 1014.1
20260906141539 85 58 0.0 1.0 0.00 0.00 0.00 76 1014.1
20260906140137 84 35 0.0 3.0 0.00 0.00 0.00 77 1014.2
20260906134527 84 65 0.0 4.0 0.00 0.00 0.00 77 1014.1
20260906133149 83 56 0.0 4.0 0.00 0.00 0.00 78 1014.2
20260906131517 82 13 0.0 3.0 0.00 0.00 0.00 80 1014.1
20260906121542 77 42 0.0 0.0 0.00 0.00 0.00 90 1013.3
20260906120033 76 236 0.0 0.0 0.00 0.00 0.00 93 1013.2
20260906114554 75 238 0.0 0.0 0.00 0.00 0.00 94 1013.1
20260906113038 75 238 0.0 0.0 0.00 0.00 0.00 94 1013.0
20260906111517 75 238 0.0 0.0 0.00 0.00 0.00 94 1012.9
20260906110019 75 238 0.0 0.0 0.00 0.00 0.00 94 1012.9
20260906104525 75 238 0.0 0.0 0.00 0.00 0.00 94 1012.9
20260906103013 75 238 0.0 0.0 0.00 0.00 0.00 93 1012.9
20260906101512 75 238 0.0 0.0 0.00 0.00 0.00 93 1012.8
20260906100016 75 238 0.0 0.0 0.00 0.00 0.00 93 1012.7
20260906094508 76 238 0.0 0.0 0.00 0.00 0.00 93 1012.5
20260906093007 76 238 0.0 0.0 0.00 0.00 0.00 92 1012.3
20260906091510 76 238 0.0 0.0 0.00 0.00 0.00 92 1012.2
20260906090006 76 238 0.0 0.0 0.00 0.00 0.00 92 1012.2
20260906084502 76 238 0.0 0.0 0.00 0.00 0.00 91 1012.0
20260906083100 76 238 0.0 0.0 0.00 0.00 0.00 91 1011.9
20260906081614 76 238 0.0 0.0 0.00 0.00 0.00 91 1011.9
20260906074611 76 228 0.0 0.0 0.00 0.00 0.00 90 1011.8
20260906073054 77 229 0.0 0.0 0.00 0.00 0.00 90 1011.8
20260906071555 77 229 0.0 0.0 0.00 0.00 0.00 89 1011.9
20260906070052 77 229 0.0 0.0 0.00 0.00 0.00 89 1012.0
20260906064550 77 229 0.0 0.0 0.00 0.00 0.00 88 1012.1
20260906063047 78 229 0.0 0.0 0.00 0.00 0.00 88 1012.3
20260906061545 78 218 0.0 0.0 0.00 0.00 0.00 88 1012.2
20260906060044 78 218 0.0 0.0 0.00 0.00 0.00 87 1012.3
20260906054543 78 218 0.0 0.0 0.00 0.00 0.00 86 1012.4
20260906053040 79 218 0.0 0.0 0.00 0.00 0.00 85 1012.3
20260906051546 79 218 0.0 0.0 0.00 0.00 0.00 85 1012.3
20260906050045 79 218 0.0 0.0 0.00 0.00 0.00 84 1012.3
20260906044538 80 218 0.0 0.0 0.00 0.00 0.00 82 1012.4
20260906043035 80 218 0.0 0.0 0.00 0.00 0.00 81 1012.4
20260906041536 81 218 0.0 0.0 0.00 0.00 0.00 81 1012.4
20260906040034 81 218 0.0 0.0 0.00 0.00 0.00 79 1012.3
20260906034535 81 218 0.0 0.0 0.00 0.00 0.00 79 1012.1
20260906033044 82 218 0.0 0.0 0.00 0.00 0.00 77 1011.8
20260906031533 82 218 0.0 0.0 0.00 0.00 0.00 77 1011.9
20260906030032 82 337 0.0 0.0 0.00 0.00 0.00 78 1011.7
20260906024532 83 2 0.0 0.0 0.00 0.00 0.00 76 1011.6
20260906023035 84 3 0.0 0.0 0.00 0.00 0.00 75 1011.4
20260906021531 84 3 0.0 0.0 0.00 0.00 0.00 74 1011.2
20260906020031 86 3 0.0 0.0 0.00 0.00 0.00 71 1010.9
20260906014532 87 3 0.0 0.0 0.00 0.00 0.00 66 1010.6
20260906013029 88 3 0.0 0.0 0.00 0.00 0.00 64 1010.6
20260906011535 90 3 0.0 0.0 0.00 0.00 0.00 61 1010.4
20260906010031 92 3 0.0 0.0 0.00 0.00 0.00 57 1010.3
20260906004527 93 3 0.0 0.0 0.00 0.00 0.00 53 1010.2
20260906003027 94 3 0.0 3.0 0.00 0.00 0.00 52 1010.2
20260906001526 95 63 0.0 4.0 0.00 0.00 0.00 51 1010.2
20260906000026 96 8 0.0 5.0 0.00 0.00 0.00 49 1010.2
20260905234525 96 17 1.0 8.0 0.00 0.00 0.00 48 1010.1
20260905233024 97 323 1.0 6.0 0.00 0.00 0.00 47 1010.1
20260905231525 98 15 0.0 4.0 0.00 0.00 0.00 45 1010.0
20260905230028 98 29 0.0 9.0 0.00 0.00 0.00 45 1009.9
20260905224532 99 24 0.0 5.0 0.00 0.00 0.00 44 1010.0
20260905223022 99 33 0.0 6.0 0.00 0.00 0.00 44 1010.0
20260905221521 100 64 0.0 4.0 0.00 0.00 0.00 43 1010.0
20260905220020 100 6 0.0 5.0 0.00 0.00 0.00 43 1010.1
20260905214519 100 68 0.0 6.0 0.00 0.00 0.00 43 1010.1
20260905213018 100 41 1.0 8.0 0.00 0.00 0.00 42 1010.2
20260905211516 100 333 0.0 7.0 0.00 0.00 0.00 43 1010.4
20260905210013 101 21 0.0 2.0 0.00 0.00 0.00 41 1010.6
20260905204517 100 51 0.0 4.0 0.00 0.00 0.00 42 1010.7
20260905203010 101 13 0.0 4.0 0.00 0.00 0.00 42 1010.9
20260905201508 101 22 0.0 5.0 0.00 0.00 0.00 41 1011.1
20260905200006 100 29 2.0 9.0 0.00 0.00 0.00 42 1011.2
20260905194503 101 45 0.0 1.0 0.00 0.00 0.00 43 1011.5
20260905193100 101 352 0.0 4.0 0.00 0.00 0.00 42 1011.7
20260905191558 102 18 0.0 1.0 0.00 0.00 0.00 41 1011.9
20260905190056 100 157 0.0 3.0 0.00 0.00 0.00 45 1012.0
20260905184600 101 25 0.0 6.0 0.00 0.00 0.00 42 1012.2
20260905183056 102 155 0.0 0.0 0.00 0.00 0.00 44 1012.5
20260905181603 102 57 0.0 0.0 0.00 0.00 0.00 43 1012.8
20260905180046 102 4 0.0 0.0 0.00 0.00 0.00 45 1013.0
20260905174549 99 66 0.0 1.0 0.00 0.00 0.00 49 1013.2
20260905173041 99 85 0.0 0.0 0.00 0.00 0.00 49 1013.3
20260905171543 99 90 0.0 1.0 0.00 0.00 0.00 50 1013.4
20260905170037 100 228 0.0 0.0 0.00 0.00 0.00 50 1013.7
20260905164537 100 105 0.0 0.0 0.00 0.00 0.00 50 1013.9
20260905163029 99 105 0.0 0.0 0.00 0.00 0.00 51 1014.0
20260905161526 97 221 0.0 1.0 0.00 0.00 0.00 52 1014.1
20260905160031 95 217 0.0 1.0 0.00 0.00 0.00 55 1014.1
20260905154519 95 351 0.0 0.0 0.00 0.00 0.00 56 1014.2
20260905153020 95 19 0.0 0.0 0.00 0.00 0.00 55 1014.3
20260905151512 94 124 0.0 1.0 0.00 0.00 0.00 58 1014.2